Regional Weather Roundup
Issued by NWS Upton, NY

Current Version | Previous Version | Graphics & Text | Print | Product List | Glossary Off
Versions: 1 2 3 4 5 6 7 8 9 10 11 12 13 14 15 16 17 18 19 20 21 22 23 24 25 26

000
ASUS41 KOKX 281104
RWROKX

REGIONAL WEATHER ROUNDUP
NATIONAL WEATHER SERVICE NEW YORK NY
700 AM EDT THU APR 28 2016

NOTE: "FAIR" INDICATES FEW OR NO CLOUDS BELOW 12,000 FEET WITH NO
SIGNIFICANT WEATHER AND/OR OBSTRUCTIONS TO VISIBILITY.

NYZ071-072-176-178-NJZ106-104-281200-
NEW YORK CITY METRO AREA


CITY           SKY/WX    TMP DP  RH WIND       PRES   REMARKS
CENTRAL PARK   PTSUNNY   48  20  32 VRB6      30.06R
LAGUARDIA APRT PTSUNNY   49  23  36 NE10      30.03R
KENNEDY INTL   PTSUNNY   49  20  31 NE8       30.05R
NEWARK/LIBERTY CLOUDY    50  22  33 NE12      30.04R
BRNX BOT. GARD   N/A     46  23  39 CALM      30.03R
TETERBORO      PTSUNNY   47  20  34 NE8       30.03R
$$

NYZ177-179-078>081-281200-
LONG ISLAND NEW YORK

CITY           SKY/WX    TMP DP  RH WIND       PRES   REMARKS
FARMINGDALE    CLOUDY    47  24  40 NE10      30.03R
ISLIP          PTSUNNY   47  27  45 N7        30.02R
SHIRLEY        MOSUNNY   46  27  47 N3        30.03R
RIVERHEAD        N/A     46  32  57 NE3       30.02R
WESTHAMPTON    CLOUDY    44  27  51 NE12      30.03R
EAST HAMPTON   FAIR      45  26  47 NE6       30.01R
MONTAUK POINT    N/A     47  33  58 NE7       30.04R
$$

NYZ052-065-067-281200-
HUDSON VALLEY

CITY           SKY/WX    TMP DP  RH WIND       PRES   REMARKS
WHITE PLAINS   PTSUNNY   45  19  35 NE7       30.02R
NEWBURGH       SUNNY     41  25  52 E6        30.03R
MONTGOMERY     CLOUDY    36  31  82 CALM      30.04R
POUGHKEEPSIE   CLOUDY    40  28  62 S3        30.04R
ALBANY         CLOUDY    37  23  56 CALM      30.07R
$$

NJZ001-105-106-008-010-013-015-019>022-104-281200-
NEW JERSEY

CITY           SKY/WX    TMP DP  RH WIND       PRES   REMARKS
NEWARK/LIBERTY CLOUDY    50  22  33 NE12      30.04R
TETERBORO      PTSUNNY   47  20  34 NE8       30.03R
CALDWELL       MOSUNNY   47  29  49 NE5       30.04R
MORRISTOWN     PTSUNNY   43  34  70 NE3       30.03R
SOMERVILLE     CLOUDY    41  39  93 MISG      30.01R FOG
SUSSEX         MOSUNNY   38  32  79 S3        30.03R
ANDOVER          N/A     44  24  45 CALM      30.03R
TRENTON        CLOUDY    47  37  68 N5        30.02R
MILLVILLE      CLOUDY    50  47  89 NW3       29.99R FOG
ATLANTIC CITY  MOCLDY    47  45  93 CALM      29.99R
WRIGHTSTOWN    CLOUDY    46  44  91 NE6       29.98R
TOMS RIVER     PTSUNNY   39  36  87 N3        30.01R
BELMAR         CLOUDY    48  36  61 NE8       30.03R
$$

PAZ047>061-062-071-281200-
EASTERN PENNSYLVANIA

CITY           SKY/WX    TMP DP  RH WIND       PRES   REMARKS
PHILADELPHIA   MOCLDY    52  38  58 NE8       30.01R
ALLENTOWN      CLOUDY    45  27  49 CALM      30.02R
SCRANTON       PTCLDY    41  23  48 CALM      30.02R
$$

CTZ002-004>006-009-010-012-RIZ004-006-007-MAZ004-011-015-281200-
SOUTHERN NEW ENGLAND
 IN CT

CITY           SKY/WX    TMP DP  RH WIND       PRES   REMARKS
BRADLEY INTL   CLOUDY    41  21  44 N3        30.03R
HARTFORD       MOSUNNY   42  33  70 S5        30.05R
DANBURY        MOSUNNY   44  20  38 N8        30.04R
WTRBRY/OXFORD  MOSUNNY   39  19  45 N14       30.03R WCI  31
BRIDGEPORT     SUNNY     47  21  35 N3        30.04R
MERIDEN        MOSUNNY   37  30  75 CALM      30.03R
NEW HAVEN      MOSUNNY   43  23  45 CALM      30.03R
CHESTER        FAIR      45  18  33 CALM      30.03R
GROTON         SUNNY     42  35  76 CALM      30.03R
WILLIMANTIC    SUNNY     36  31  82 CALM      30.05R

 IN RI

CITY           SKY/WX    TMP DP  RH WIND       PRES   REMARKS
PROVIDENCE     MOSUNNY   44  20  38 N3        30.04R
BLOCK ISLAND   SUNNY     45  30  55 NE12      30.04R
WESTERLY       SUNNY     41  31  67 NE3       30.04R

 IN MA

CITY           SKY/WX    TMP DP  RH WIND       PRES   REMARKS
BOSTON         MOSUNNY   44  13  28 NW6       30.04R
WORCESTER      SUNNY     38  18  44 CALM      30.01R
WESTFIELD      SUNNY     36  27  69 CALM      30.04R
PROVINCETOWN   SUNNY     44  29  55 NE6       30.03R
NANTUCKET      SUNNY     46  31  55 NE8       30.01R
$$

ANZ330-335-338-340-345-350-353-355-281200-
COASTAL MARINE OBSERVATIONS


STATION/POSITION TIME  SKY/WX   TEMP    WIND        PRES    VSBY  WAVE
                                AIR SEA DIR/SP/G                  HT/PER
                 (UTC)          (F)     (DEG/KT/KT) (MB)    (MI)  (FT/S)
NY HARB ENTRANCE 0950            51 52   30/ 16/ 19 1014.7          3/ 7
20S FIRE ISLAND  0950            50 49   30/ 14/ 16 1014.9          2/ 7
GREAT SOUTH BAY  1000            49 58   20/  8/ 10   N/A
23 SSW MONTAUK P 0950            48 47  350/ 12/ 14 1014.7          3/ 8
15 E BARNEGAT LI 1022               51                N/A           3/ 6
HUDSON CANYON    0950            49 49              1014.8          3/ 7
KINGS POINT      1000            47 53              1015.6
EXECUTION ROCKS  NOT AVBL
CENTRAL LI SOUND 1000            47     360/ 10/ 12   N/A           1/ 2
EASTERN LI SOUND 1000            46 47   30/  4/  8   N/A
ROBBINS REEF     1000            50      60/ 13/ 15 1014.7
$$


>>>>>>>>>>>>>>>>>>>>>>>>>>>> KEY <<<<<<<<<<<<<<<<<<<<<<<<<<<
>                                                          <
>     SKY/WX - SKY CONDITION/PRESENT WEATHER               <
>     TMP    - TEMPERATURE IN FAHRENHEIT                   <
>     DP     - DEWPOINT IN FAHRENHEIT                      <
>     RH     - RELATIVE HUMIDITY IN PERCENT                <
>     WIND   - DIRECTION AND SPEED IN MPH                  <
>     PRES   - MEAN SEA LEVEL PRESSURE IN INCHES OF HG     <
>     WCI    - WIND CHILL INDEX                            <
>     VSB    - VISIBILITY IN MILES                         <
>     HX     - HEAT INDEX                                  <
>     TC     - TEMPERATURE IN CELSIUS                      <
>     VRB    - VARIABLE WIND DIRECTION                     <
>                                                          <
>>>>>>>>>>>>>>>>>>>>>>>>>>>> KEY <<<<<<<<<<<<<<<<<<<<<<<<<<<






USA.gov is the U.S. government's official web portal to all federal, state and local government web resources and services.